[[{"header":{"parameterUnit":"m.s-1","parameterCategory":2,"la1":30.2991,"la2":30.254,"lo1":-89.0895,"lo2":-89.0444,"dy":0.0017,"dx":0.0017,"nx":28,"ny":28,"refTime":"2025-05-30T03:00:00:Z","depth":"0","parameterNumber":2,"parameterNumberName":"U-component_of_CURRENTS"},"data":[0,0,0,0,0,0,0,0,0,0,0,0,0,0,0,0,0,0,0,0,0,0,0,0,0,0,0,0,0,0,0,0,0,0,0,0,0,0,0,0,0,0,0,0,0,0,0,0,0,0,0,0,0,0,0,0,0,0,0.4596,0.4599,0,0.479,0.4792,0.4794,0.4848,0.4847,0.4847,0.4846,0.4842,0.4842,0.4843,0,0,0,0,0,0,0,0,0,0,0,0,0,0.4244,0.425,0.4596,0.4599,0.4602,0.479,0.4792,0.4794,0.4848,0.4847,0.4847,0.4846,0.4842,0.4842,0.4843,0,0,0,0,0,0,0,0,0,0,0,0,0,0.4408,0.4252,0.4596,0.4656,0.4664,0.479,0.4792,0.4795,0.4848,0.4847,0.4847,0.4846,0.4842,0.4842,0.4843,0.4862,0,0,0.4845,0.4845,0,0,0,0,0,0,0,0,0.4398,0.442,0.4644,0.4652,0.4661,0.48,0.4667,0.481,0.4848,0.4772,0.4846,0.4845,0.4814,0.4817,0.4849,0.4862,0.4862,0.4845,0.4845,0.4845,0.4845,0,0,0,0,0,0,0,0.4387,0.4412,0.4667,0.4648,0.4658,0.4665,0.4687,0.4695,0.4786,0.4778,0.4784,0.4816,0.4816,0.4849,0.4849,0.4862,0.4845,0.4845,0.4845,0.4846,0.4907,0.4908,0,0,0,0,0,0,0.4379,0.4402,0.4661,0.4673,0.4532,0.4672,0.4696,0.4751,0.4791,0.48,0.4817,0.4818,0.4848,0.4848,0.4849,0.4904,0.4845,0.4846,0.4846,0.4906,0.4907,0.4909,0,0,0,0,0,0,0.4371,0.4401,0.4653,0.4544,0.4578,0.468,0.474,0.4755,0.4795,0.4823,0.4827,0.4842,0.4847,0.4848,0.4874,0.4902,0.4846,0.4846,0.4904,0.4906,0.4908,0.4993,0,0,0,0,0,0,0.4361,0.4398,0.4428,0.4545,0.4584,0.4732,0.4742,0.476,0.4819,0.4823,0.4846,0.4845,0.4847,0.4873,0.4874,0.4902,0.4847,0.4903,0.4905,0.4907,0.4989,0.4998,0.5006,0,0,0,0,0,0.4348,0.4409,0.4429,0.446,0.4626,0.4734,0.4754,0.4818,0.4821,0.4847,0.4867,0.4845,0.4889,0.4875,0.4876,0.4904,0.4901,0.4904,0.4907,0.4985,0.4996,0.5005,0,0,0,0,0,0,0.4274,0.4424,0.4448,0.4551,0.4632,0.4746,0.4788,0.4822,0.4865,0.4859,0.4868,0.487,0.4894,0.489,0.4875,0.4928,0.4889,0.4892,0.4947,0.4958,0.4966,0.4932,0.4847,0,0,0,0,0,0.4272,0.436,0.4477,0.4557,0.4597,0.4686,0.4735,0.4779,0.4839,0.4858,0.488,0.4894,0.4909,0.4925,0.4928,0.4969,0.4974,0.4984,0.4993,0.5,0.4973,0.5021,0.5032,0.4918,0.4918,0.4918,0,0,0.4269,0.4362,0.4412,0.4547,0.4613,0.4692,0.4713,0.4796,0.4855,0.4846,0.4914,0.4914,0.492,0.4963,0.4975,0.4967,0.5046,0.5004,0.501,0.4978,0.5025,0.5036,0.5046,0.492,0.492,0.492,0,0,0.4318,0.4382,0.4471,0.4535,0.4643,0.4699,0.4721,0.4829,0.4864,0.4923,0.4933,0.4955,0.4984,0.5014,0.5025,0.508,0.5075,0.508,0.5115,0.5164,0.5174,0.5182,0.5252,0.5266,0.5102,0.5102,0.5102,0,0.4312,0.4431,0.4505,0.4591,0.4647,0.4701,0.4779,0.4833,0.4933,0.4959,0.4941,0.5002,0.5006,0.5073,0.5089,0.5099,0.5127,0.5082,0.5176,0.5184,0.5191,0.526,0.5274,0.5107,0.5106,0.5106,0.5105,0,0.4429,0.4501,0.4552,0.4679,0.474,0.4813,0.4892,0.4941,0.4966,0.501,0.5056,0.5074,0.5112,0.5124,0.5116,0.5182,0.5189,0.5171,0.5152,0.5207,0.5277,0.529,0.5113,0.5111,0.511,0.5109,0,0,0.4488,0.4613,0.4629,0.4655,0.4785,0.4834,0.493,0.502,0.5056,0.511,0.5165,0.5192,0.5189,0.5199,0.5216,0.5246,0.5337,0.5227,0.5227,0.5299,0.5466,0.5463,0.5477,0.534,0.5342,0.5343,0.5514,0,0.4557,0.4672,0.4749,0.4831,0.4875,0.4943,0.5018,0.5089,0.5129,0.5186,0.5211,0.5248,0.523,0.5244,0.5282,0.5305,0.5365,0.5292,0.5396,0.5399,0.5392,0.5489,0.5179,0.5302,0.5527,0.5529,0.553,0,0.4654,0.4703,0.479,0.4852,0.4885,0.4938,0.5021,0.5105,0.5197,0.5228,0.5283,0.53,0.5376,0.5327,0.5436,0.5392,0.543,0.5443,0.5451,0.5411,0.5418,0.5272,0.5317,0.5174,0.555,0.5548,0.5547,0,0.4614,0.4727,0.4771,0.4802,0.4901,0.4936,0.4996,0.5093,0.5145,0.5253,0.528,0.5378,0.5411,0.5476,0.5534,0.5489,0.5636,0.5595,0.5641,0.5643,0.5375,0.535,0.528,0.5666,0.5666,0.5665,0.5665,0,0.4658,0.4685,0.4728,0.4748,0.4769,0.4871,0.4911,0.5001,0.511,0.5171,0.5284,0.5349,0.5434,0.5535,0.5583,0.5677,0.5707,0.5657,0.5686,0.5403,0.538,0.5237,0.5187,0.5672,0.567,0.5669,0.5668,0,0.4614,0.467,0.4686,0.4741,0.4746,0.4754,0.4834,0.4868,0.5003,0.5093,0.5135,0.5326,0.5493,0.5607,0.5731,0.5734,0.5667,0.5854,0.5535,0.5523,0.5397,0.5363,0.5191,0.5051,0.5918,0.5919,0.592,0,0.46,0.4602,0.4618,0.4603,0.462,0.4631,0.465,0.4787,0.4841,0.5082,0.5128,0.5337,0.5452,0.5683,0.5744,0.5875,0.572,0.5664,0.5507,0.5363,0.5347,0.5177,0.5057,0.5207,0.5202,0.5198,0.5194,0,0.4527,0.4531,0.4535,0.449,0.448,0.448,0.4523,0.4554,0.4755,0.4851,0.503,0.5146,0.5392,0.5396,0.5597,0.5631,0.5361,0.5585,0.5477,0.4824,0.4583,0.4469,0.5164,0.5157,0.516,0.5163,0.5165,0.5167,0.444,0.4403,0.4391,0.4353,0.4341,0.4334,0.4304,0.4393,0.4476,0.4627,0.4846,0.494,0.5059,0.529,0.5316,0.5137,0.5179,0.4941,0.4935,0.4797,0.4557,0.5213,0.5218,0.5222,0.5226,0.5229,0.5231,0,0.4308,0.4287,0.4247,0.4196,0.4142,0.4186,0.4218,0.4185,0.4233,0.4419,0.4539,0.4584,0.4605,0.4692,0.4622,0.4466,0.424,0.4355,0.3967,0.3902,0.4501,0.4363,0.4128,0.4128,0.4128,0.4128,0.4128,0.4128,0.4234,0.416,0.4147,0.401,0.3974,0.3856,0.3857,0.3851,0.393,0.3937,0.3933,0.4042,0.4186,0.4249,0.4069,0.3956,0.366,0.3482,0.3588,0.3934,0.3984,0.4032,0.3887,0.3557,0.3556,0.2726,0.2719,0.2715]},{"header":{"parameterUnit":"m.s-1","parameterCategory":2,"la1":30.2991,"la2":30.254,"lo1":-89.0895,"lo2":-89.0444,"dy":0.0017,"dx":0.0017,"nx":28,"ny":28,"refTime":"2025-05-30T03:00:00:Z","depth":"0","parameterNumber":3,"parameterNumberName":"V-component_of_CURRENTS"},"data":[0,0,0,0,0,0,0,0,0,0,0,0,0,0,0,0,0,0,0,0,0,0,0,0,0,0,0,0,0,0,0,0,0,0,0,0,0,0,0,0,0,0,0,0,0,0,0,0,0,0,0,0,0,0,0,0,0,0,-0.0987,-0.099,0,-0.1229,-0.1232,-0.1234,-0.1309,-0.1308,-0.1308,-0.1307,-0.147,-0.1475,-0.148,0,0,0,0,0,0,0,0,0,0,0,0,0,-0.0594,-0.06,-0.0986,-0.099,-0.0993,-0.1229,-0.1232,-0.1235,-0.1309,-0.1308,-0.1307,-0.1307,-0.1469,-0.1475,-0.1481,0,0,0,0,0,0,0,0,0,0,0,0,0,-0.0789,-0.0602,-0.0986,-0.1062,-0.1072,-0.1229,-0.1232,-0.1236,-0.131,-0.1308,-0.1307,-0.1306,-0.1467,-0.1474,-0.1482,-0.1551,0,0,-0.1505,-0.1508,0,0,0,0,0,0,0,0,-0.0778,-0.0802,-0.1048,-0.1057,-0.1069,-0.1242,-0.1154,-0.1339,-0.131,-0.1214,-0.1307,-0.1306,-0.1391,-0.1404,-0.1447,-0.1559,-0.1566,-0.1506,-0.151,-0.1513,-0.1516,0,0,0,0,0,0,0,-0.0764,-0.0793,-0.1078,-0.1052,-0.1064,-0.1087,-0.1113,-0.1189,-0.1301,-0.1223,-0.123,-0.1265,-0.1395,-0.144,-0.1451,-0.1568,-0.1505,-0.1512,-0.1517,-0.152,-0.1728,-0.1728,0,0,0,0,0,0,-0.0746,-0.0781,-0.107,-0.1086,-0.0922,-0.1095,-0.1124,-0.1184,-0.1302,-0.1321,-0.1265,-0.1267,-0.1427,-0.1442,-0.1457,-0.1489,-0.1513,-0.152,-0.1525,-0.1727,-0.1728,-0.1729,0,0,0,0,0,0,-0.0737,-0.077,-0.1061,-0.094,-0.0979,-0.1104,-0.117,-0.1189,-0.1242,-0.1336,-0.1352,-0.1298,-0.1427,-0.1447,-0.1525,-0.1497,-0.1524,-0.1531,-0.1725,-0.1727,-0.1728,-0.1589,0,0,0,0,0,0,-0.0725,-0.0766,-0.0797,-0.094,-0.0986,-0.1155,-0.1172,-0.1195,-0.1267,-0.1271,-0.137,-0.1384,-0.1428,-0.1513,-0.1532,-0.1508,-0.1537,-0.1724,-0.1726,-0.1728,-0.1592,-0.1585,-0.1579,0,0,0,0,0,-0.071,-0.0772,-0.0798,-0.0833,-0.1027,-0.1157,-0.1182,-0.1261,-0.1269,-0.1301,-0.1358,-0.1381,-0.1537,-0.1521,-0.1543,-0.152,-0.1723,-0.1726,-0.1728,-0.1595,-0.1587,-0.158,0,0,0,0,0,0,-0.063,-0.0791,-0.0821,-0.0931,-0.1029,-0.1171,-0.122,-0.1266,-0.1342,-0.1337,-0.1407,-0.1427,-0.148,-0.154,-0.1519,-0.1591,-0.163,-0.1637,-0.1522,-0.1515,-0.1508,-0.1429,-0.1543,0,0,0,0,0,-0.0624,-0.0709,-0.0848,-0.0934,-0.0982,-0.1095,-0.1155,-0.1206,-0.1297,-0.133,-0.1392,-0.1457,-0.1511,-0.1542,-0.1609,-0.1661,-0.1649,-0.1662,-0.1655,-0.1649,-0.1603,-0.1592,-0.1578,-0.1736,-0.1736,-0.1736,0,0,-0.0621,-0.0718,-0.0768,-0.092,-0.1003,-0.1054,-0.1128,-0.1223,-0.1237,-0.1336,-0.1373,-0.1445,-0.1525,-0.1567,-0.1595,-0.1608,-0.1596,-0.1651,-0.1645,-0.1602,-0.1592,-0.1576,-0.1561,-0.1737,-0.1737,-0.1737,0,0,-0.0637,-0.0738,-0.0793,-0.0861,-0.0979,-0.1045,-0.1066,-0.1195,-0.1224,-0.1288,-0.134,-0.1388,-0.1502,-0.1524,-0.1554,-0.1562,-0.1568,-0.1603,-0.1495,-0.1485,-0.1469,-0.1456,-0.139,-0.1372,-0.1592,-0.1591,-0.1591,0,-0.0623,-0.0694,-0.0827,-0.087,-0.0897,-0.1027,-0.1038,-0.1106,-0.123,-0.1228,-0.1279,-0.1383,-0.1461,-0.1461,-0.1464,-0.1535,-0.152,-0.1507,-0.1467,-0.1454,-0.1442,-0.1379,-0.136,-0.1585,-0.1586,-0.1586,-0.1587,0,-0.0657,-0.069,-0.0729,-0.0807,-0.0861,-0.0905,-0.0992,-0.1034,-0.108,-0.1124,-0.1153,-0.1257,-0.1303,-0.1346,-0.1408,-0.1368,-0.1378,-0.1458,-0.1463,-0.1416,-0.1355,-0.1337,-0.1576,-0.1578,-0.158,-0.1581,0,0,-0.068,-0.0734,-0.0738,-0.0701,-0.0809,-0.0843,-0.0871,-0.0907,-0.088,-0.0987,-0.0937,-0.105,-0.1099,-0.1136,-0.122,-0.1213,-0.1129,-0.1291,-0.1293,-0.118,-0.1055,-0.1007,-0.0984,-0.1204,-0.1201,-0.1199,-0.1031,0,-0.0646,-0.0633,-0.0692,-0.0648,-0.0629,-0.071,-0.0711,-0.0754,-0.0801,-0.0796,-0.0874,-0.0889,-0.1023,-0.1034,-0.105,-0.1128,-0.1083,-0.1163,-0.1155,-0.1153,-0.1081,-0.0963,-0.092,-0.0763,-0.1014,-0.1012,-0.101,0,-0.0638,-0.0612,-0.0549,-0.0486,-0.0491,-0.0481,-0.0454,-0.0478,-0.0518,-0.0551,-0.0585,-0.067,-0.0689,-0.0811,-0.0849,-0.0898,-0.0941,-0.0989,-0.0986,-0.0968,-0.1073,-0.0864,-0.0723,-0.0934,-0.0984,-0.0986,-0.0988,0,-0.0526,-0.0495,-0.0409,-0.0401,-0.0391,-0.0348,-0.0341,-0.0378,-0.0357,-0.0382,-0.036,-0.0435,-0.0446,-0.0534,-0.0669,-0.0754,-0.0672,-0.0816,-0.0782,-0.0778,-0.0749,-0.0747,-0.0768,-0.0771,-0.0772,-0.0772,-0.0773,0,-0.0447,-0.0369,-0.0328,-0.0282,-0.0161,-0.0199,-0.0094,-0.0127,-0.0117,-0.0039,-0.0209,-0.0142,-0.0381,-0.0401,-0.0541,-0.0574,-0.0572,-0.0692,-0.0716,-0.07,-0.0696,-0.089,-0.1043,-0.0766,-0.0767,-0.0769,-0.077,0,-0.034,-0.0323,-0.0217,-0.0148,-0.0108,-0.0025,0.0062,0.0129,0.0104,0.0209,0.0212,0.0109,0.0087,-0.0101,-0.0207,-0.0375,-0.0524,-0.0441,-0.0373,-0.0393,-0.0615,-0.0762,-0.0757,-0.0841,-0.0383,-0.038,-0.0378,0,-0.0263,-0.0209,-0.0113,-0.0041,0.0004,0.013,0.0211,0.0232,0.0316,0.0396,0.0477,0.0469,0.0527,0.0385,0.0105,-0.0055,-0.0327,-0.018,-0.0352,-0.0545,-0.0729,-0.0853,-0.0936,-0.0247,-0.0244,-0.0242,-0.024,0,-0.0131,-0.0131,-0.006,0.0081,0.0198,0.0334,0.0479,0.0586,0.0643,0.0772,0.0941,0.1011,0.0871,0.0714,0.0434,0.026,-0.0334,-0.0135,-0.0366,-0.0611,-0.0713,-0.0833,-0.0419,-0.0218,-0.022,-0.0222,-0.0223,-0.0224,-0.0047,0.0014,0.0078,0.022,0.0352,0.0538,0.0691,0.0872,0.1086,0.1336,0.1354,0.1568,0.1214,0.0849,0.0551,-0.0041,-0.0105,-0.0272,-0.0418,-0.0512,-0.064,-0.0135,0.0031,0.0031,0.003,0.0029,0.0029,0,0.0054,0.0109,0.0229,0.0394,0.056,0.0607,0.0861,0.1042,0.1369,0.1674,0.1894,0.1921,0.1502,0.0954,0.016,-0.027,-0.0494,-0.0542,-0.075,-0.0816,-0.037,-0.0418,-0.0304,-0.0304,-0.0304,-0.0304,-0.0304,-0.0303,0.0112,0.022,0.0275,0.0556,0.0682,0.0938,0.1101,0.1383,0.1656,0.2095,0.2329,0.2459,0.2015,0.0549,-0.0441,-0.0673,-0.1056,-0.1081,-0.1282,-0.1056,-0.1045,-0.1035,-0.1116,-0.115,-0.1152,-0.1672,-0.1677,-0.1681]}],[{"header":{"parameterUnit":"m.s-1","parameterCategory":2,"la1":30.2991,"la2":30.254,"lo1":-89.0895,"lo2":-89.0444,"dy":0.0017,"dx":0.0017,"nx":28,"ny":28,"refTime":"2025-05-30T03:00:00:Z","depth":"2","parameterNumber":2,"parameterNumberName":"U-component_of_CURRENTS"},"data":[0,0,0,0,0,0,0,0,0,0,0,0,0,0,0,0,0,0,0,0,0,0,0,0,0,0,0,0,0,0,0,0,0,0,0,0,0,0,0,0,0,0,0,0,0,0,0,0,0,0,0,0,0,0,0,0,0,0,0.2839,0.2841,0,0.2911,0.291,0.2909,0.2992,0.2995,0.2998,0.3001,0.3176,0.3177,0.3179,0,0,0,0,0,0,0,0,0,0,0,0,0,0.2812,0.281,0.2838,0.2841,0.2844,0.2911,0.291,0.2909,0.2992,0.2995,0.2999,0.3003,0.3175,0.3177,0.3179,0,0,0,0,0,0,0,0,0,0,0,0,0,0.2828,0.2809,0.2838,0.2908,0.2917,0.2911,0.291,0.2909,0.2991,0.2995,0.3,0.3004,0.3174,0.3177,0.318,0.3103,0,0,0.3188,0.3189,0,0,0,0,0,0,0,0,0.2827,0.2826,0.2895,0.2903,0.2913,0.2965,0.2966,0.2986,0.299,0.2941,0.3001,0.3007,0.3125,0.3131,0.3104,0.3111,0.3118,0.3188,0.3189,0.319,0.3191,0,0,0,0,0,0,0,0.2826,0.2824,0.2846,0.2898,0.2909,0.2952,0.2956,0.2968,0.2992,0.2946,0.2957,0.2996,0.3128,0.3101,0.311,0.3121,0.3188,0.319,0.3192,0.3193,0.3488,0.3494,0,0,0,0,0,0,0.285,0.2822,0.2845,0.2851,0.2904,0.295,0.2954,0.2927,0.299,0.3009,0.2992,0.3,0.3094,0.3106,0.3117,0.3367,0.319,0.3193,0.3194,0.3481,0.3489,0.3496,0,0,0,0,0,0,0.2847,0.2848,0.2842,0.2859,0.2864,0.2947,0.2915,0.2927,0.2985,0.3028,0.3046,0.3052,0.3099,0.3113,0.3245,0.3363,0.3194,0.3196,0.3474,0.3484,0.3492,0.3654,0,0,0,0,0,0,0.2845,0.2844,0.285,0.2858,0.2865,0.292,0.2913,0.2925,0.3007,0.3019,0.3083,0.3099,0.3103,0.3242,0.3248,0.3364,0.3199,0.3466,0.3478,0.3489,0.364,0.3667,0.369,0,0,0,0,0,0.2842,0.2864,0.2847,0.2855,0.2861,0.2926,0.2932,0.2993,0.3006,0.3054,0.3122,0.3102,0.3323,0.3248,0.3254,0.3373,0.346,0.3475,0.3488,0.3629,0.3662,0.369,0,0,0,0,0,0,0.2866,0.2875,0.2859,0.288,0.2931,0.295,0.3013,0.3027,0.3099,0.3141,0.3149,0.3172,0.3335,0.3334,0.3251,0.3502,0.3399,0.3415,0.3505,0.3536,0.356,0.3507,0.3201,0,0,0,0,0,0.2863,0.2883,0.2897,0.2929,0.2952,0.2975,0.3016,0.306,0.3123,0.316,0.322,0.3299,0.3374,0.3443,0.35,0.3612,0.3582,0.3709,0.3734,0.3754,0.3723,0.3778,0.3802,0.3542,0.3542,0.3542,0,0,0.2881,0.29,0.2908,0.2939,0.2968,0.3055,0.301,0.3112,0.3224,0.3167,0.3356,0.3378,0.3423,0.3573,0.3648,0.3603,0.3832,0.3772,0.3789,0.3745,0.3795,0.3819,0.384,0.3552,0.355,0.3548,0,0,0.2971,0.294,0.2999,0.3046,0.3137,0.3163,0.3211,0.3278,0.335,0.3484,0.3503,0.3574,0.3713,0.3752,0.3785,0.3972,0.395,0.4056,0.4148,0.4205,0.4224,0.424,0.4289,0.4308,0.4082,0.4083,0.4083,0,0.3027,0.3044,0.3039,0.313,0.3194,0.3228,0.3328,0.3408,0.3534,0.3586,0.3598,0.3747,0.3775,0.391,0.3997,0.4019,0.4063,0.4021,0.423,0.4245,0.4259,0.4303,0.4322,0.4092,0.4091,0.409,0.4089,0,0.3108,0.3184,0.3239,0.3343,0.342,0.3515,0.3617,0.3727,0.3797,0.3845,0.3991,0.4002,0.4082,0.413,0.4117,0.4267,0.4274,0.4238,0.4131,0.4293,0.4333,0.435,0.4106,0.4103,0.41,0.4097,0,0,0.315,0.3263,0.3303,0.3358,0.3527,0.3579,0.3799,0.3929,0.4039,0.4145,0.4227,0.4343,0.4318,0.4351,0.4357,0.4389,0.4529,0.4385,0.4383,0.4393,0.4695,0.4492,0.449,0.4564,0.4567,0.457,0.4699,0,0.3241,0.3373,0.344,0.3631,0.3706,0.3807,0.3976,0.4119,0.4239,0.4344,0.4343,0.4425,0.4432,0.4446,0.451,0.4536,0.4576,0.4497,0.4567,0.4568,0.4334,0.4501,0.4169,0.4239,0.4714,0.4717,0.4719,0,0.3343,0.3398,0.3541,0.3706,0.3745,0.387,0.4069,0.423,0.4405,0.4474,0.457,0.4587,0.4691,0.4595,0.4768,0.4753,0.4737,0.4708,0.4713,0.4455,0.4393,0.4149,0.4249,0.4745,0.4743,0.4741,0.4739,0,0.3319,0.3515,0.3594,0.3648,0.3827,0.3915,0.4024,0.4252,0.4355,0.4535,0.4581,0.475,0.4748,0.4854,0.4856,0.4869,0.4937,0.4946,0.4729,0.4716,0.4396,0.4347,0.4966,0.4966,0.4966,0.4965,0.4965,0,0.3373,0.3503,0.3569,0.3593,0.3709,0.3865,0.4014,0.4174,0.4335,0.4427,0.4621,0.4661,0.4804,0.4864,0.4915,0.4892,0.5026,0.4748,0.4735,0.4451,0.4408,0.4792,0.4771,0.497,0.4969,0.4968,0.4967,0,0.3455,0.3476,0.3613,0.3701,0.3703,0.3818,0.3937,0.4022,0.424,0.4356,0.439,0.4597,0.475,0.4849,0.493,0.4889,0.4903,0.4799,0.4443,0.4383,0.4652,0.4639,0.4705,0.4699,0.4693,0.4689,0.4686,0,0.3476,0.3526,0.3628,0.3597,0.3643,0.3737,0.3751,0.3946,0.4031,0.4297,0.4304,0.4466,0.453,0.4627,0.4604,0.4665,0.4747,0.4281,0.4194,0.4645,0.4627,0.4621,0.4615,0.3886,0.3877,0.3869,0.3862,0,0.3492,0.3582,0.3575,0.3565,0.3549,0.3607,0.365,0.3659,0.3886,0.3987,0.4084,0.4139,0.4246,0.4127,0.4148,0.4137,0.4295,0.4113,0.4699,0.3968,0.3873,0.3855,0.3876,0.379,0.3797,0.3803,0.3806,0.3809,0.3475,0.3481,0.3439,0.3466,0.3437,0.3458,0.342,0.3447,0.3502,0.3573,0.3718,0.3698,0.3751,0.3646,0.3565,0.3542,0.3849,0.37,0.3726,0.3761,0.3607,0.3503,0.3325,0.3329,0.3333,0.3336,0.3339,0,0.3372,0.3344,0.3297,0.3278,0.3236,0.3346,0.3301,0.3186,0.3121,0.3218,0.3224,0.2962,0.29,0.3026,0.2873,0.2863,0.2865,0.2767,0.2759,0.2833,0.2898,0.27,0.2178,0.2174,0.217,0.2167,0,0,0.3253,0.3155,0.3143,0.305,0.3057,0.2945,0.2892,0.2761,0.2727,0.2555,0.2531,0.269,0.2873,0.2448,0.243,0.2276,0.2528,0.2191,0.313,0.3191,0.3251,0.3451,0.323,0,0,0,0,0]},{"header":{"parameterUnit":"m.s-1","parameterCategory":2,"la1":30.2991,"la2":30.254,"lo1":-89.0895,"lo2":-89.0444,"dy":0.0017,"dx":0.0017,"nx":28,"ny":28,"refTime":"2025-05-30T03:00:00:Z","depth":"2","parameterNumber":3,"parameterNumberName":"V-component_of_CURRENTS"},"data":[0,0,0,0,0,0,0,0,0,0,0,0,0,0,0,0,0,0,0,0,0,0,0,0,0,0,0,0,0,0,0,0,0,0,0,0,0,0,0,0,0,0,0,0,0,0,0,0,0,0,0,0,0,0,0,0,0,0,0.0244,0.0243,0,0.0242,0.0243,0.0244,0.0163,0.0159,0.0156,0.0152,-0.0008,-0.0009,-0.001,0,0,0,0,0,0,0,0,0,0,0,0,0,0.0208,0.0211,0.0244,0.0243,0.0241,0.0241,0.0243,0.0244,0.0163,0.0159,0.0155,0.0151,-0.0008,-0.0009,-0.0011,0,0,0,0,0,0,0,0,0,0,0,0,0,0.0231,0.0211,0.0244,0.019,0.0184,0.0241,0.0243,0.0244,0.0164,0.0159,0.0154,0.0149,-0.0008,-0.0009,-0.0011,0.0082,0,0,-0.0016,-0.0016,0,0,0,0,0,0,0,0,0.0229,0.0234,0.02,0.0194,0.0187,0.0184,0.017,0.0177,0.0165,0.0187,0.0152,0.0146,0.0036,0.003,0.0064,0.0075,0.0068,-0.0016,-0.0017,-0.0018,-0.0018,0,0,0,0,0,0,0,0.0228,0.0233,0.0258,0.0198,0.0191,0.0175,0.0174,0.0173,0.0149,0.0185,0.0175,0.0154,0.0032,0.0066,0.0059,0.0066,-0.0016,-0.0017,-0.0018,-0.0019,-0.0058,-0.0058,0,0,0,0,0,0,0.0204,0.0233,0.0258,0.0256,0.018,0.0179,0.0178,0.0202,0.0152,0.0136,0.0158,0.015,0.0072,0.0061,0.0053,-0.0002,-0.0018,-0.0019,-0.002,-0.0058,-0.0058,-0.0058,0,0,0,0,0,0,0.0205,0.0209,0.0257,0.0229,0.0232,0.0183,0.0212,0.0205,0.0191,0.013,0.0114,0.0143,0.0067,0.0055,0.0032,-0.0004,-0.002,-0.0021,-0.0058,-0.0058,-0.0058,-0.0009,0,0,0,0,0,0,0.0205,0.0211,0.0224,0.023,0.0232,0.0281,0.0215,0.0208,0.0181,0.0169,0.0114,0.0096,0.0062,0.0035,0.003,-0.0007,-0.0022,-0.0058,-0.0058,-0.0058,-0.0011,-0.0008,-0.0005,0,0,0,0,0,0.0204,0.0235,0.0227,0.0227,0.0254,0.0281,0.0285,0.024,0.0184,0.0205,0.0156,0.0095,0.0027,0.0036,0.003,-0.0009,-0.0058,-0.0058,-0.0058,-0.0012,-0.0008,-0.0005,0,0,0,0,0,0,0.0214,0.0229,0.0219,0.0249,0.0258,0.0261,0.0273,0.0236,0.0225,0.0189,0.013,0.0114,0.007,0.0041,0.0051,-0.0022,-0.0038,-0.0039,-0.0002,0.0001,0.0004,0.0058,-0.0024,0,0,0,0,0,0.0229,0.0259,0.0266,0.0287,0.0304,0.029,0.0289,0.0254,0.0235,0.0224,0.0175,0.0117,0.0083,0.0048,0.0024,0.0011,-0.0013,-0.003,-0.0027,-0.0024,0.0015,-0.0056,-0.0055,-0.0058,-0.0058,-0.0058,0,0,0.0226,0.0241,0.0251,0.0291,0.0305,0.0343,0.0282,0.0279,0.027,0.0209,0.0185,0.0137,0.0086,0.0059,0.0033,0.0017,-0.0036,-0.0024,-0.0021,0.0017,-0.0056,-0.0056,-0.0055,-0.0059,-0.0059,-0.0059,0,0,0.0253,0.0275,0.0317,0.0349,0.0354,0.0354,0.0346,0.0337,0.03,0.0284,0.0219,0.0184,0.0116,0.0095,0.0068,0.0085,-0.001,0.0015,0.0065,-0.0006,-0.0006,-0.0006,-0.0032,-0.0034,0.0006,0.0006,0.0006,0,0.0244,0.0316,0.0328,0.0389,0.0404,0.0361,0.0403,0.0388,0.0349,0.0314,0.0265,0.0196,0.0151,0.0135,0.0123,0.0095,0.0032,0.0054,-0.0001,-0.0002,-0.0003,-0.0029,-0.0033,0.0008,0.0008,0.0008,0.0007,0,0.0335,0.0375,0.041,0.0477,0.0497,0.0528,0.0506,0.048,0.0406,0.0365,0.0311,0.0283,0.022,0.0193,0.0161,0.012,0.0071,0.0017,-0.0006,0.0001,-0.0028,-0.0033,0.0012,0.0011,0.001,0.0009,0,0,0.0342,0.0452,0.0456,0.0504,0.0544,0.057,0.0554,0.0536,0.0517,0.0443,0.0446,0.0368,0.0301,0.0274,0.0219,0.0188,0.013,0.0086,0.0081,0.0071,-0.0031,-0.0025,-0.003,0.0018,0.0017,0.0017,-0.0045,0,0.0404,0.0519,0.0552,0.0634,0.0693,0.0669,0.0675,0.0629,0.0569,0.0565,0.0489,0.0479,0.0337,0.0327,0.0245,0.0142,0.0116,0.0154,-0.0041,-0.0044,-0.0034,-0.0035,-0.0017,-0.007,-0.005,-0.0051,-0.0052,0,0.0498,0.0547,0.0639,0.0717,0.0744,0.0776,0.0774,0.078,0.0734,0.0681,0.0608,0.0556,0.0473,0.0417,0.0181,0.0174,0.0086,0.0041,0.0034,0.0031,-0.0047,-0.0076,-0.008,-0.006,-0.006,-0.0059,-0.0058,0,0.0524,0.0622,0.0685,0.0722,0.0789,0.0798,0.083,0.0791,0.0815,0.0784,0.0792,0.0631,0.0615,0.0402,0.0212,0.0157,0.0042,-0.0058,-0.0096,-0.0096,-0.0111,-0.0111,-0.0113,-0.0113,-0.0112,-0.0112,-0.0112,0,0.0634,0.066,0.0699,0.0753,0.081,0.0842,0.0915,0.0894,0.0938,0.1007,0.085,0.0894,0.0607,0.0491,0.0267,0.0043,0.0025,-0.0057,-0.0112,-0.0093,-0.009,-0.0107,-0.0106,-0.0115,-0.0114,-0.0114,-0.0113,0,0.0666,0.0704,0.0743,0.0798,0.0841,0.0866,0.102,0.1079,0.1062,0.1171,0.118,0.1072,0.0864,0.0622,0.0383,0.0157,-0.004,-0.0055,0.0018,-0.0027,-0.0145,-0.014,-0.0193,-0.0193,-0.0194,-0.0194,-0.0194,0,0.0733,0.0746,0.0775,0.0824,0.0857,0.0947,0.1048,0.112,0.1221,0.1286,0.1368,0.1263,0.1185,0.0792,0.0435,0.0072,0.0062,-0.0076,-0.0155,-0.0105,-0.0154,-0.0149,-0.0144,-0.0159,-0.0159,-0.0159,-0.0159,0,0.0792,0.0732,0.0793,0.0868,0.0964,0.1094,0.1261,0.1387,0.1498,0.1566,0.1657,0.1622,0.1272,0.0902,0.0467,0.0225,-0.007,-0.0085,-0.0068,-0.0132,-0.0076,-0.0123,-0.0119,-0.0158,-0.0158,-0.0158,-0.0158,-0.0158,0.0798,0.0824,0.0872,0.0962,0.1071,0.124,0.1395,0.1587,0.178,0.1902,0.1874,0.177,0.1397,0.0771,0.0395,-0.0007,-0.0013,-0.0177,-0.0177,-0.0177,-0.0152,-0.01,-0.0179,-0.0179,-0.0179,-0.0179,-0.0179,0,0.083,0.0887,0.0989,0.1102,0.1238,0.1263,0.1545,0.1685,0.1933,0.1999,0.2022,0.1634,0.1255,0.082,0.0219,-0.0128,-0.0172,-0.023,-0.022,-0.0218,-0.0217,-0.0195,-0.0233,-0.0234,-0.0235,-0.0236,0,0,0.0856,0.0954,0.1032,0.1245,0.1333,0.1515,0.1678,0.1852,0.1959,0.2025,0.1959,0.1811,0.1329,0.0886,0.0421,0.0092,0.0015,0.0028,0.0105,0.0174,0.0179,-0.0154,-0.0113,0,0,0,0,0]}],[{"header":{"parameterUnit":"m.s-1","parameterCategory":2,"la1":30.2991,"la2":30.254,"lo1":-89.0895,"lo2":-89.0444,"dy":0.0017,"dx":0.0017,"nx":28,"ny":28,"refTime":"2025-05-30T03:00:00:Z","depth":"4","parameterNumber":2,"parameterNumberName":"U-component_of_CURRENTS"},"data":[0,0,0,0,0,0,0,0,0,0,0,0,0,0,0,0,0,0,0,0,0,0,0,0,0,0,0,0,0,0,0,0,0,0,0,0,0,0,0,0,0,0,0,0,0,0,0,0,0,0,0,0,0,0,0,0,0,0,0.123,0.123,0,0.1232,0.1231,0.1231,0.1246,0.1247,0.1248,0.1249,0.1282,0.1282,0.1282,0,0,0,0,0,0,0,0,0,0,0,0,0,0.1263,0.1262,0.123,0.123,0.1231,0.1232,0.1231,0.1231,0.1246,0.1247,0.1248,0.1249,0.1282,0.1282,0.1282,0,0,0,0,0,0,0,0,0,0,0,0,0,0.125,0.1261,0.123,0.1243,0.1244,0.1232,0.1231,0.1231,0.1246,0.1247,0.1249,0.125,0.1282,0.1282,0.1282,0.1256,0,0,0.1283,0.1283,0,0,0,0,0,0,0,0,0.1251,0.1248,0.124,0.1242,0.1244,0.1245,0.1256,0.1243,0.1246,0.124,0.1249,0.1251,0.1275,0.1276,0.1265,0.1258,0.1259,0.1283,0.1283,0.1283,0.1283,0,0,0,0,0,0,0,0.1251,0.1248,0.1225,0.1241,0.1243,0.1257,0.1256,0.1253,0.1246,0.124,0.1243,0.1251,0.1276,0.1265,0.1266,0.126,0.1283,0.1283,0.1283,0.1283,0.1376,0.1379,0,0,0,0,0,0,0.1259,0.1249,0.1225,0.1226,0.1257,0.1256,0.1254,0.1239,0.1246,0.1249,0.125,0.1252,0.1264,0.1266,0.1268,0.1378,0.1283,0.1283,0.1283,0.1374,0.1377,0.138,0,0,0,0,0,0,0.1259,0.1256,0.1225,0.1243,0.1241,0.1254,0.1237,0.1238,0.1262,0.1254,0.1257,0.1277,0.1265,0.1267,0.1294,0.1374,0.1283,0.1283,0.1371,0.1375,0.1378,0.1508,0,0,0,0,0,0,0.126,0.1255,0.1246,0.1243,0.1241,0.1231,0.1236,0.1237,0.1266,0.1269,0.1277,0.128,0.1266,0.1294,0.1294,0.1372,0.1283,0.1368,0.1373,0.1377,0.15,0.1515,0.1528,0,0,0,0,0,0.1261,0.1235,0.1245,0.1243,0.1227,0.1232,0.1231,0.1242,0.1266,0.127,0.1288,0.1281,0.1325,0.1295,0.1295,0.1375,0.1366,0.1371,0.1377,0.1494,0.1512,0.1528,0,0,0,0,0,0,0.1244,0.1234,0.1246,0.1219,0.1237,0.1237,0.1243,0.1261,0.1276,0.1291,0.1291,0.1293,0.1352,0.1336,0.1304,0.1416,0.1353,0.1359,0.1443,0.146,0.1473,0.151,0.1283,0,0,0,0,0,0.1237,0.1222,0.1228,0.1217,0.1226,0.1246,0.1253,0.1267,0.1281,0.1291,0.131,0.1336,0.1367,0.139,0.1396,0.1445,0.1453,0.1503,0.1517,0.1529,0.1559,0.1656,0.1683,0.1398,0.1398,0.1397,0,0,0.1228,0.1228,0.1217,0.1215,0.1231,0.1238,0.1253,0.1275,0.1282,0.1292,0.1325,0.1375,0.1386,0.1447,0.1475,0.1451,0.1604,0.1536,0.1546,0.1571,0.1665,0.1693,0.1718,0.1401,0.1401,0.14,0,0,0.1217,0.1209,0.12,0.1214,0.1245,0.125,0.1269,0.1297,0.1309,0.135,0.1377,0.1485,0.1498,0.1558,0.1579,0.1673,0.1666,0.1681,0.1796,0.189,0.1915,0.1937,0.1942,0.1964,0.1701,0.1701,0.1701,0,0.1197,0.1212,0.1203,0.1213,0.1235,0.1263,0.1281,0.1278,0.1318,0.1383,0.1375,0.1531,0.156,0.1673,0.1736,0.1712,0.1731,0.1732,0.1912,0.1934,0.1955,0.1955,0.1977,0.1708,0.1707,0.1706,0.1706,0,0.1198,0.1217,0.1223,0.1239,0.1243,0.1277,0.1278,0.1318,0.137,0.1432,0.1569,0.1618,0.1738,0.1778,0.1796,0.1975,0.1926,0.1909,0.1873,0.1992,0.1982,0.2004,0.1718,0.1715,0.1713,0.1711,0,0,0.113,0.1206,0.122,0.126,0.1277,0.1293,0.1306,0.1385,0.1463,0.1541,0.1681,0.1801,0.1909,0.1942,0.1989,0.2106,0.228,0.2102,0.2104,0.2113,0.2441,0.2267,0.2271,0.2308,0.2314,0.2318,0.2361,0,0.1149,0.1213,0.1229,0.1288,0.1317,0.135,0.1369,0.1442,0.152,0.1654,0.1782,0.1925,0.1928,0.2043,0.2154,0.2241,0.2349,0.2266,0.232,0.232,0.2159,0.2297,0.2335,0.2376,0.2381,0.2384,0.2387,0,0.1122,0.12,0.1274,0.1362,0.138,0.142,0.1525,0.1544,0.1709,0.1787,0.1958,0.2054,0.2241,0.2237,0.2411,0.2359,0.244,0.2494,0.2496,0.2312,0.2189,0.2243,0.2424,0.2421,0.2418,0.2416,0.2414,0,0.1085,0.1202,0.1291,0.1319,0.1417,0.1486,0.1545,0.1656,0.1704,0.1918,0.2034,0.22,0.233,0.2431,0.2553,0.2508,0.2739,0.2659,0.256,0.2543,0.2625,0.2602,0.2842,0.2842,0.2842,0.2842,0.2842,0,0.1053,0.1121,0.1322,0.1364,0.1483,0.1539,0.1665,0.1722,0.1871,0.1979,0.2134,0.2233,0.2415,0.2552,0.2605,0.2632,0.2762,0.2612,0.2577,0.2667,0.2649,0.2636,0.2612,0.2843,0.2843,0.2843,0.2843,0,0.0927,0.1078,0.1155,0.1358,0.1449,0.1512,0.1694,0.1779,0.1922,0.2055,0.2144,0.2326,0.2451,0.258,0.2766,0.269,0.2747,0.2755,0.2832,0.2792,0.245,0.2432,0.256,0.2555,0.2551,0.2548,0.2545,0,0.0858,0.0913,0.1116,0.1223,0.1333,0.1503,0.1612,0.1771,0.1841,0.207,0.2117,0.2347,0.245,0.2526,0.2655,0.2699,0.2711,0.2702,0.2595,0.2486,0.2439,0.2427,0.2415,0.2538,0.2537,0.2536,0.2534,0,0.074,0.0815,0.0929,0.1111,0.1275,0.1397,0.1578,0.1628,0.1807,0.197,0.2079,0.219,0.2335,0.2415,0.2529,0.2555,0.266,0.2655,0.2662,0.2561,0.246,0.2415,0.2408,0.252,0.2522,0.2523,0.2524,0,0.0654,0.0696,0.0866,0.1004,0.1189,0.1273,0.1374,0.153,0.1626,0.1875,0.1913,0.2129,0.2314,0.2346,0.2423,0.2452,0.2378,0.2298,0.2322,0.2339,0.2252,0.209,0.2043,0,0,0,0,0,0.0574,0.0652,0.0773,0.0921,0.1062,0.1171,0.1352,0.1456,0.1663,0.1687,0.1795,0.1918,0.2037,0.2139,0.2117,0.2279,0.2369,0.2241,0.2284,0.2438,0.2455,0.2375,0,0,0,0,0,0,0.0565,0.0671,0.0732,0.0824,0.0919,0.1055,0.1178,0.131,0.1337,0.1554,0.1629,0.1795,0.1931,0.2034,0.208,0.2109,0.2095,0.2368,0.2363,0.2428,0.2443,0.2457,0.2381,0,0,0,0,0]},{"header":{"parameterUnit":"m.s-1","parameterCategory":2,"la1":30.2991,"la2":30.254,"lo1":-89.0895,"lo2":-89.0444,"dy":0.0017,"dx":0.0017,"nx":28,"ny":28,"refTime":"2025-05-30T03:00:00:Z","depth":"4","parameterNumber":3,"parameterNumberName":"V-component_of_CURRENTS"},"data":[0,0,0,0,0,0,0,0,0,0,0,0,0,0,0,0,0,0,0,0,0,0,0,0,0,0,0,0,0,0,0,0,0,0,0,0,0,0,0,0,0,0,0,0,0,0,0,0,0,0,0,0,0,0,0,0,0,0,0.0393,0.0394,0,0.0423,0.0423,0.0424,0.0433,0.0433,0.0433,0.0433,0.045,0.045,0.0451,0,0,0,0,0,0,0,0,0,0,0,0,0,0.0307,0.0309,0.0393,0.0394,0.0394,0.0423,0.0423,0.0424,0.0433,0.0433,0.0433,0.0433,0.0449,0.045,0.0451,0,0,0,0,0,0,0,0,0,0,0,0,0,0.0342,0.031,0.0393,0.0401,0.0402,0.0423,0.0423,0.0424,0.0433,0.0433,0.0433,0.0432,0.0449,0.045,0.0451,0.0463,0,0,0.0454,0.0454,0,0,0,0,0,0,0,0,0.034,0.0346,0.04,0.0401,0.0402,0.0423,0.0399,0.0436,0.0433,0.0423,0.0433,0.0432,0.0439,0.0441,0.0449,0.0464,0.0465,0.0454,0.0455,0.0455,0.0455,0,0,0,0,0,0,0,0.0338,0.0344,0.0406,0.04,0.0402,0.0391,0.0396,0.0406,0.0433,0.0424,0.0424,0.0426,0.044,0.0448,0.0449,0.0465,0.0454,0.0455,0.0455,0.0456,0.049,0.0491,0,0,0,0,0,0,0.0335,0.0342,0.0405,0.0407,0.0369,0.0392,0.0398,0.0417,0.0433,0.0435,0.0426,0.0426,0.0446,0.0448,0.045,0.0485,0.0455,0.0456,0.0456,0.049,0.0491,0.0491,0,0,0,0,0,0,0.0334,0.0341,0.0404,0.0373,0.038,0.0394,0.0416,0.0418,0.0435,0.0435,0.0437,0.0441,0.0446,0.0448,0.0471,0.0485,0.0456,0.0457,0.049,0.049,0.0491,0.0542,0,0,0,0,0,0,0.0331,0.0341,0.0364,0.0374,0.0382,0.0428,0.0416,0.0419,0.0436,0.0437,0.0449,0.0449,0.0446,0.047,0.0472,0.0485,0.0458,0.0489,0.049,0.0491,0.054,0.0544,0.0548,0,0,0,0,0,0.0329,0.0366,0.0365,0.0373,0.041,0.0429,0.0433,0.0441,0.0437,0.0454,0.0459,0.0449,0.0474,0.0471,0.0474,0.0488,0.0489,0.049,0.049,0.0538,0.0544,0.0548,0,0,0,0,0,0,0.0344,0.037,0.037,0.0414,0.0423,0.0431,0.0454,0.0449,0.0467,0.0474,0.0464,0.0466,0.0485,0.048,0.0477,0.0497,0.0476,0.0477,0.0511,0.0516,0.052,0.0548,0.0459,0,0,0,0,0,0.0356,0.0392,0.04,0.0437,0.0445,0.0448,0.046,0.0464,0.0475,0.0483,0.0487,0.0489,0.0489,0.0499,0.05,0.0523,0.0477,0.0528,0.0533,0.0536,0.0559,0.0483,0.0482,0.0493,0.0493,0.0493,0,0,0.0371,0.0391,0.0411,0.0442,0.0453,0.0476,0.0456,0.0484,0.0494,0.0482,0.051,0.0506,0.0496,0.0516,0.0524,0.0518,0.0504,0.0537,0.0541,0.0562,0.0484,0.0483,0.0482,0.0494,0.0494,0.0494,0,0,0.0422,0.0438,0.0484,0.0494,0.0516,0.0511,0.052,0.0533,0.0532,0.0557,0.0539,0.0551,0.0562,0.0556,0.0553,0.0581,0.0523,0.0574,0.0628,0.0554,0.0552,0.055,0.047,0.0461,0.0582,0.0582,0.0582,0,0.0445,0.0499,0.0498,0.0537,0.0555,0.0528,0.057,0.0558,0.0575,0.0592,0.0575,0.0592,0.0581,0.0595,0.0606,0.0592,0.0535,0.0612,0.0558,0.0556,0.0553,0.0471,0.046,0.0585,0.0584,0.0584,0.0584,0,0.0521,0.0563,0.059,0.0628,0.0641,0.0675,0.0654,0.066,0.0653,0.0661,0.0678,0.0654,0.067,0.0655,0.0647,0.0631,0.0591,0.0564,0.0546,0.0555,0.0468,0.0456,0.0588,0.0588,0.0587,0.0586,0,0,0.0594,0.0638,0.0653,0.0674,0.0697,0.0711,0.0722,0.0743,0.0756,0.0755,0.0778,0.0773,0.0769,0.0763,0.0729,0.0677,0.0599,0.0627,0.0622,0.0549,0.0423,0.0393,0.0376,0.0555,0.0554,0.0553,0.0363,0,0.0663,0.0738,0.0752,0.0812,0.0838,0.0824,0.0835,0.0844,0.0837,0.0844,0.0815,0.0827,0.0798,0.0802,0.0746,0.0638,0.0573,0.0653,0.0426,0.042,0.0393,0.0363,0.0549,0.0353,0.035,0.0348,0.0346,0,0.0752,0.0777,0.0858,0.0887,0.0903,0.0932,0.0949,0.0962,0.0958,0.096,0.0966,0.0932,0.0887,0.0836,0.066,0.0709,0.0585,0.0487,0.0476,0.0431,0.0368,0.0347,0.0323,0.0325,0.0327,0.0328,0.033,0,0.08,0.086,0.0923,0.0938,0.0964,0.0996,0.1008,0.1018,0.1032,0.1035,0.1044,0.0986,0.0937,0.0791,0.0614,0.0626,0.0386,0.0366,0.0217,0.0212,0.0274,0.0278,0.0227,0.0227,0.0228,0.0228,0.0229,0,0.0879,0.0927,0.0945,0.0981,0.1026,0.1041,0.1106,0.1101,0.1116,0.1144,0.1109,0.1077,0.092,0.0772,0.0612,0.0376,0.0373,0.0225,0.0163,0.0297,0.0306,0.0263,0.0269,0.0221,0.0223,0.0224,0.0225,0,0.0934,0.0967,0.1023,0.1053,0.1061,0.1097,0.115,0.1181,0.1194,0.1211,0.1216,0.1123,0.0934,0.0749,0.0487,0.0363,0.0149,0.0062,0.0213,0.0163,0.0022,0.0034,-0.0123,-0.0125,-0.0127,-0.0129,-0.0131,0,0.0956,0.0999,0.1057,0.1085,0.1108,0.1158,0.119,0.1219,0.1245,0.1226,0.1217,0.1069,0.0982,0.0594,0.04,0.0083,0.0044,-0.0062,0.0,0.0032,-0.0013,0.0002,0.0016,-0.0134,-0.0135,-0.0135,-0.0136,0,0.0971,0.1023,0.1067,0.1109,0.1156,0.1206,0.1245,0.1262,0.1293,0.1304,0.1206,0.1042,0.0819,0.0565,0.0321,0.0098,0.0018,-0.0085,-0.0082,-0.0024,0.0016,-0.0023,-0.0006,-0.0144,-0.0142,-0.0142,-0.0141,0,0.0971,0.1005,0.1069,0.1104,0.1175,0.1215,0.1247,0.1248,0.1266,0.1243,0.1198,0.1,0.0893,0.0566,0.0336,0.0124,0.0075,0.0026,0.0023,0.0029,0.0145,0.0222,0.007,0,0,0,0,0,0.0947,0.0988,0.1032,0.1081,0.1161,0.1197,0.1257,0.1286,0.1309,0.1242,0.1224,0.1025,0.0702,0.0563,0.034,0.028,0.0029,0.0011,-0.003,-0.0186,-0.0177,-0.0067,0,0,0,0,0,0,0.0932,0.0994,0.1017,0.1052,0.1093,0.1162,0.1219,0.1234,0.1195,0.1198,0.1024,0.097,0.0647,0.0824,0.0334,0.0271,0.0214,-0.013,-0.0135,-0.019,-0.0183,-0.0176,-0.006,0,0,0,0,0]}]]